Regional Weather Roundup
Issued by NWS

Home | Current Version | Previous Version | Graphics & Text | Print | Product List | Glossary On
Versions: 1 2 3 4 5 6 7 8 9 10 11 12 13 14 15 16 17 18 19 20 21 22 23 24 25 26 27 28 29 30 31 32 33 34 35 36 37 38 39 40 41 42 43 44 45 46 47 48 49 50
000
ASUS43 KLMK 310702
RWRKY
KENTUCKY REGIONAL WEATHER ROUNDUP
NATIONAL WEATHER SERVICE LOUISVILLE KY
300 AM EDT MON AUG 31 2015

NOTE "FAIR" INDICATES FEW OR NO CLOUDS BELOW 12,000 FEET
WITH NO SIGNIFICANT WEATHER AND/OR OBSTRUCTIONS TO VISIBILITY.

KYZ001>023-026-027-061>063-070>075-310800-
WESTERN AND SOUTH CENTRAL KENTUCKY

CITY           SKY/WX    TMP DP  RH WIND       PRES   REMARKS
PADUCAH        CLEAR     66  64  93 SE5       30.04S FOG
HENDERSON      CLEAR     66  63  88 CALM      30.05S
OWENSBORO      CLEAR     69  67  93 SE3       30.07S
HOPKINSVILLE   CLEAR     69  67  95 SE1       30.06S
BOWLING GREEN  CLEAR     65  62  90 SE5       30.09S
GLASGOW        NOT AVBL
$$

KYZ024-025-028>034-038-045-046-053-310800-
NORTH CENTRAL KENTUCKY

CITY           SKY/WX    TMP DP  RH WIND       PRES   REMARKS
LOUISVILLE/SDF MOCLDY    72  66  81 SE6       30.07S
LOUISVILLE/LOU CLEAR     71  67  87 SE3       30.08S
FORT KNOX      CLEAR     65  64  96 CALM      30.06F
$$

KYZ035>037-039>044-047>052-055>060-089>105-310800-
NORTHEAST KENTUCKY

CITY           SKY/WX    TMP DP  RH WIND       PRES   REMARKS
LEXINGTON      CLEAR     68  64  87 S3        30.10F
COVINGTON      PTCLDY    69  66  90 SW3       30.09S
FRANKFORT      PTCLDY    68  65  90 CALM      30.08F
$$

KYZ054-064>069-076>088-106>120-310800-
SOUTHEAST KENTUCKY

CITY           SKY/WX    TMP DP  RH WIND       PRES   REMARKS
JACKSON        CLOUDY    70  65  84 CALM      30.12F
LONDON         CLOUDY    69  64  84 CALM      30.12F
SOMERSET       NOT AVBL
MIDDLESBORO    NOT AVBL
MONTICELLO     FOG       62  62 100 CALM      30.14S VSB 1/2
$$




USA.gov is the U.S. government's official web portal to all federal, state and local government web resources and services.